owner,sensor,date,latitude,longitude,vertical_datum,mass_concentration_of_oxygen_in_sea_water,qcFlag 
SCCF RECON,ioos:station:SCCF:51:1,2010-04-01T00:00:00Z,26.5545,-82.1715,1.421,7.72,1111122 
SCCF RECON,ioos:station:SCCF:51:1,2010-04-01T01:00:00Z,26.5545,-82.1715,1.331,8.03,1111122 
SCCF RECON,ioos:station:SCCF:51:1,2010-04-01T02:00:00Z,26.5545,-82.1715,1.301,7.96,1111122 
SCCF RECON,ioos:station:SCCF:51:1,2010-04-01T03:00:00Z,26.5545,-82.1715,1.368,7.57,1111122 
SCCF RECON,ioos:station:SCCF:51:1,2010-04-01T04:00:00Z,26.5545,-82.1715,1.476,7.55,1111122 
SCCF RECON,ioos:station:SCCF:51:1,2010-04-01T05:00:00Z,26.5545,-82.1715,1.618,7.62,1111122 
SCCF RECON,ioos:station:SCCF:51:1,2010-04-01T06:00:00Z,26.5545,-82.1715,1.747,7.76,1111122 
SCCF RECON,ioos:station:SCCF:51:1,2010-04-01T07:00:00Z,26.5545,-82.1715,1.83,7.65,1111122 
SCCF RECON,ioos:station:SCCF:51:1,2010-04-01T08:00:00Z,26.5545,-82.1715,1.856,7.57,1111122 
SCCF RECON,ioos:station:SCCF:51:1,2010-04-01T09:00:00Z,26.5545,-82.1715,1.812,7.34,1111122 
SCCF RECON,ioos:station:SCCF:51:1,2010-04-01T10:00:00Z,26.5545,-82.1715,1.741,7.32,1111122 
SCCF RECON,ioos:station:SCCF:51:1,2010-04-01T11:00:00Z,26.5545,-82.1715,1.673,7.22,1111122 
SCCF RECON,ioos:station:SCCF:51:1,2010-04-01T12:00:00Z,26.5545,-82.1715,1.63,7.1,1111122 
SCCF RECON,ioos:station:SCCF:51:1,2010-04-01T13:00:00Z,26.5545,-82.1715,1.636,7.24,1111122 
SCCF RECON,ioos:station:SCCF:51:1,2010-04-01T14:00:00Z,26.5545,-82.1715,1.693,7.35,1111122 
SCCF RECON,ioos:station:SCCF:51:1,2010-04-01T15:00:00Z,26.5545,-82.1715,1.769,7.62,1111122 
SCCF RECON,ioos:station:SCCF:51:1,2010-04-01T16:00:00Z,26.5545,-82.1715,1.872,7.55,1111122 
SCCF RECON,ioos:station:SCCF:51:1,2010-04-01T17:00:00Z,26.5545,-82.1715,1.994,7.58,1111122 
SCCF RECON,ioos:station:SCCF:51:1,2010-04-01T18:00:00Z,26.5545,-82.1715,2.074,7.63,1111122 
SCCF RECON,ioos:station:SCCF:51:1,2010-04-01T19:00:00Z,26.5545,-82.1715,2.082,7.82,1111122 
SCCF RECON,ioos:station:SCCF:51:1,2010-04-01T20:00:00Z,26.5545,-82.1715,2.01,7.81,1111122 
SCCF RECON,ioos:station:SCCF:51:1,2010-04-01T21:00:00Z,26.5545,-82.1715,1.91,8.11,1111122 
SCCF RECON,ioos:station:SCCF:51:1,2010-04-01T22:00:00Z,26.5545,-82.1715,1.784,8.09,1111122 
SCCF RECON,ioos:station:SCCF:51:1,2010-04-01T23:00:00Z,26.5545,-82.1715,1.65,7.97,1111122 
SCCF RECON,ioos:station:SCCF:51:1,2010-04-02T00:00:00Z,26.5545,-82.1715,1.529,7.97,1111122 
SCCF RECON,ioos:station:SCCF:51:1,2010-04-02T01:00:00Z,26.5545,-82.1715,1.415,8.17,1111122 
SCCF RECON,ioos:station:SCCF:51:1,2010-04-02T02:00:00Z,26.5545,-82.1715,1.335,8.61,1111122 
SCCF RECON,ioos:station:SCCF:51:1,2010-04-02T03:00:00Z,26.5545,-82.1715,1.308,8.36,1111122 
SCCF RECON,ioos:station:SCCF:51:1,2010-04-02T04:00:00Z,26.5545,-82.1715,1.376,8.22,1111122 
SCCF RECON,ioos:station:SCCF:51:1,2010-04-02T05:00:00Z,26.5545,-82.1715,1.49,7.61,1111122 
SCCF RECON,ioos:station:SCCF:51:1,2010-04-02T06:00:00Z,26.5545,-82.1715,1.62,7.57,1111122 
SCCF RECON,ioos:station:SCCF:51:1,2010-04-02T07:00:00Z,26.5545,-82.1715,1.72,7.68,1111122 
SCCF RECON,ioos:station:SCCF:51:1,2010-04-02T08:00:00Z,26.5545,-82.1715,1.781,7.51,1111122 
SCCF RECON,ioos:station:SCCF:51:1,2010-04-02T09:00:00Z,26.5545,-82.1715,1.782,7.37,1111122 
SCCF RECON,ioos:station:SCCF:51:1,2010-04-02T10:00:00Z,26.5545,-82.1715,1.74,7.37,1111122 
SCCF RECON,ioos:station:SCCF:51:1,2010-04-02T11:00:00Z,26.5545,-82.1715,1.7,7.32,1111122 
SCCF RECON,ioos:station:SCCF:51:1,2010-04-02T12:00:00Z,26.5545,-82.1715,1.671,7.32,1111122 
SCCF RECON,ioos:station:SCCF:51:1,2010-04-02T13:00:00Z,26.5545,-82.1715,1.688,7.52,1111122 
SCCF RECON,ioos:station:SCCF:51:1,2010-04-02T14:00:00Z,26.5545,-82.1715,1.753,7.73,1111122 
SCCF RECON,ioos:station:SCCF:51:1,2010-04-02T15:00:00Z,26.5545,-82.1715,1.82,7.68,1111122 
SCCF RECON,ioos:station:SCCF:51:1,2010-04-02T16:00:00Z,26.5545,-82.1715,1.906,7.71,1111122 
SCCF RECON,ioos:station:SCCF:51:1,2010-04-02T17:00:00Z,26.5545,-82.1715,2.002,7.67,1111122 
SCCF RECON,ioos:station:SCCF:51:1,2010-04-02T18:00:00Z,26.5545,-82.1715,2.081,7.75,1111122 
SCCF RECON,ioos:station:SCCF:51:1,2010-04-02T19:00:00Z,26.5545,-82.1715,2.106,7.85,1111122 
SCCF RECON,ioos:station:SCCF:51:1,2010-04-02T20:00:00Z,26.5545,-82.1715,2.071,7.75,1111122 
SCCF RECON,ioos:station:SCCF:51:1,2010-04-02T21:00:00Z,26.5545,-82.1715,1.999,8.31,1111122 
SCCF RECON,ioos:station:SCCF:51:1,2010-04-02T22:00:00Z,26.5545,-82.1715,1.906,8.27,1111122 
SCCF RECON,ioos:station:SCCF:51:1,2010-04-02T23:00:00Z,26.5545,-82.1715,1.789,8.4,1111122 
SCCF RECON,ioos:station:SCCF:51:1,2010-04-03T00:00:00Z,26.5545,-82.1715,1.67,8.26,1111122 
SCCF RECON,ioos:station:SCCF:51:1,2010-04-03T01:00:00Z,26.5545,-82.1715,1.567,8.14,1111122 
SCCF RECON,ioos:station:SCCF:51:1,2010-04-03T02:00:00Z,26.5545,-82.1715,1.47,8.46,1111122 
SCCF RECON,ioos:station:SCCF:51:1,2010-04-03T03:00:00Z,26.5545,-82.1715,1.406,8.98,1111122 
SCCF RECON,ioos:station:SCCF:51:1,2010-04-03T04:00:00Z,26.5545,-82.1715,1.4,8.6,1111122 
SCCF RECON,ioos:station:SCCF:51:1,2010-04-03T05:00:00Z,26.5545,-82.1715,1.481,8.86,1111122 
SCCF RECON,ioos:station:SCCF:51:1,2010-04-03T06:00:00Z,26.5545,-82.1715,1.597,7.89,1111122 
SCCF RECON,ioos:station:SCCF:51:1,2010-04-03T07:00:00Z,26.5545,-82.1715,1.7,7.6,1111122 
SCCF RECON,ioos:station:SCCF:51:1,2010-04-03T08:00:00Z,26.5545,-82.1715,1.769,7.47,1111122 
SCCF RECON,ioos:station:SCCF:51:1,2010-04-03T09:00:00Z,26.5545,-82.1715,1.79,7.51,1111122 
SCCF RECON,ioos:station:SCCF:51:1,2010-04-03T10:00:00Z,26.5545,-82.1715,1.79,7.4,1111122 
SCCF RECON,ioos:station:SCCF:51:1,2010-04-03T11:00:00Z,26.5545,-82.1715,1.77,7.56,1111122 
SCCF RECON,ioos:station:SCCF:51:1,2010-04-03T12:00:00Z,26.5545,-82.1715,1.769,7.63,1111122 
SCCF RECON,ioos:station:SCCF:51:1,2010-04-03T13:00:00Z,26.5545,-82.1715,1.771,7.54,1111122 
SCCF RECON,ioos:station:SCCF:51:1,2010-04-03T14:00:00Z,26.5545,-82.1715,1.805,7.69,1111122 
SCCF RECON,ioos:station:SCCF:51:1,2010-04-03T15:00:00Z,26.5545,-82.1715,1.847,7.85,1111122 
SCCF RECON,ioos:station:SCCF:51:1,2010-04-03T16:00:00Z,26.5545,-82.1715,1.901,7.69,1111122 
SCCF RECON,ioos:station:SCCF:51:1,2010-04-03T17:00:00Z,26.5545,-82.1715,1.957,7.73,1111122 
SCCF RECON,ioos:station:SCCF:51:1,2010-04-03T18:00:00Z,26.5545,-82.1715,2.029,7.72,1111122 
SCCF RECON,ioos:station:SCCF:51:1,2010-04-03T19:00:00Z,26.5545,-82.1715,2.083,7.81,1111122 
SCCF RECON,ioos:station:SCCF:51:1,2010-04-03T20:00:00Z,26.5545,-82.1715,2.096,7.84,1111122 
SCCF RECON,ioos:station:SCCF:51:1,2010-04-03T21:00:00Z,26.5545,-82.1715,2.06,7.9,1111122 
SCCF RECON,ioos:station:SCCF:51:1,2010-04-03T22:00:00Z,26.5545,-82.1715,1.986,8.42,1111122 
SCCF RECON,ioos:station:SCCF:51:1,2010-04-03T23:00:00Z,26.5545,-82.1715,1.898,8.5,1111122 
SCCF RECON,ioos:station:SCCF:51:1,2010-04-04T00:00:00Z,26.5545,-82.1715,1.793,8.03,1111122 
SCCF RECON,ioos:station:SCCF:51:1,2010-04-04T01:00:00Z,26.5545,-82.1715,1.683,7.97,1111122 
SCCF RECON,ioos:station:SCCF:51:1,2010-04-04T02:00:00Z,26.5545,-82.1715,1.578,7.86,1111122 
SCCF RECON,ioos:station:SCCF:51:1,2010-04-04T03:00:00Z,26.5545,-82.1715,1.486,7.85,1111122 
SCCF RECON,ioos:station:SCCF:51:1,2010-04-04T04:00:00Z,26.5545,-82.1715,1.43,8.18,1111122 
SCCF RECON,ioos:station:SCCF:51:1,2010-04-04T05:00:00Z,26.5545,-82.1715,1.444,7.94,1111122 
SCCF RECON,ioos:station:SCCF:51:1,2010-04-04T06:00:00Z,26.5545,-82.1715,1.501,7.62,1111122 
SCCF RECON,ioos:station:SCCF:51:1,2010-04-04T07:00:00Z,26.5545,-82.1715,1.594,7.43,1111122 
SCCF RECON,ioos:station:SCCF:51:1,2010-04-04T08:00:00Z,26.5545,-82.1715,1.68,7.32,1111122 
SCCF RECON,ioos:station:SCCF:51:1,2010-04-04T09:00:00Z,26.5545,-82.1715,1.737,7.27,1111122 
SCCF RECON,ioos:station:SCCF:51:1,2010-04-04T10:00:00Z,26.5545,-82.1715,1.761,7.11,1111122 
SCCF RECON,ioos:station:SCCF:51:1,2010-04-04T11:00:00Z,26.5545,-82.1715,1.785,7.17,1111122 
SCCF RECON,ioos:station:SCCF:51:1,2010-04-04T12:00:00Z,26.5545,-82.1715,1.81,7.21,1111122 
SCCF RECON,ioos:station:SCCF:51:1,2010-04-04T13:00:00Z,26.5545,-82.1715,1.831,7.34,1111122 
SCCF RECON,ioos:station:SCCF:51:1,2010-04-04T14:00:00Z,26.5545,-82.1715,1.858,7.33,1111122 
SCCF RECON,ioos:station:SCCF:51:1,2010-04-04T15:00:00Z,26.5545,-82.1715,1.891,7.31,1111122 
SCCF RECON,ioos:station:SCCF:51:1,2010-04-04T16:00:00Z,26.5545,-82.1715,1.93,7.42,1111122 
SCCF RECON,ioos:station:SCCF:51:1,2010-04-04T17:00:00Z,26.5545,-82.1715,1.951,7.66,1111122 
SCCF RECON,ioos:station:SCCF:51:1,2010-04-04T18:00:00Z,26.5545,-82.1715,2.0,7.9,1111122 
SCCF RECON,ioos:station:SCCF:51:1,2010-04-04T19:00:00Z,26.5545,-82.1715,2.044,8.18,1111122 
SCCF RECON,ioos:station:SCCF:51:1,2010-04-04T20:00:00Z,26.5545,-82.1715,2.091,8.07,1111122 
SCCF RECON,ioos:station:SCCF:51:1,2010-04-04T21:00:00Z,26.5545,-82.1715,2.088,8.23,1111122 
SCCF RECON,ioos:station:SCCF:51:1,2010-04-04T22:00:00Z,26.5545,-82.1715,2.045,8.28,1111122 
SCCF RECON,ioos:station:SCCF:51:1,2010-04-04T23:00:00Z,26.5545,-82.1715,1.967,8.06,1111122 
SCCF RECON,ioos:station:SCCF:51:1,2010-04-05T00:00:00Z,26.5545,-82.1715,1.871,8.09,1111122 
SCCF RECON,ioos:station:SCCF:51:1,2010-04-05T01:00:00Z,26.5545,-82.1715,1.773,8.02,1111122 
SCCF RECON,ioos:station:SCCF:51:1,2010-04-05T02:00:00Z,26.5545,-82.1715,1.682,7.94,1111122 
SCCF RECON,ioos:station:SCCF:51:1,2010-04-05T03:00:00Z,26.5545,-82.1715,1.586,7.82,1111122 
SCCF RECON,ioos:station:SCCF:51:1,2010-04-05T04:00:00Z,26.5545,-82.1715,1.508,7.65,1111122 
SCCF RECON,ioos:station:SCCF:51:1,2010-04-05T05:00:00Z,26.5545,-82.1715,1.449,7.49,1111122 
SCCF RECON,ioos:station:SCCF:51:1,2010-04-05T06:00:00Z,26.5545,-82.1715,1.433,7.31,1111122 
SCCF RECON,ioos:station:SCCF:51:1,2010-04-05T07:00:00Z,26.5545,-82.1715,1.489,7.3,1111122 
SCCF RECON,ioos:station:SCCF:51:1,2010-04-05T08:00:00Z,26.5545,-82.1715,1.57,7.3,1111122 
SCCF RECON,ioos:station:SCCF:51:1,2010-04-05T09:00:00Z,26.5545,-82.1715,1.64,7.18,1111122 
SCCF RECON,ioos:station:SCCF:51:1,2010-04-05T10:00:00Z,26.5545,-82.1715,1.693,7.13,1111122 
SCCF RECON,ioos:station:SCCF:51:1,2010-04-05T11:00:00Z,26.5545,-82.1715,1.734,6.96,1111122 
SCCF RECON,ioos:station:SCCF:51:1,2010-04-05T12:00:00Z,26.5545,-82.1715,1.779,7.0,1111122 
SCCF RECON,ioos:station:SCCF:51:1,2010-04-05T13:00:00Z,26.5545,-82.1715,1.831,6.92,1111122 
SCCF RECON,ioos:station:SCCF:51:1,2010-04-05T14:00:00Z,26.5545,-82.1715,1.872,6.99,1111122 
SCCF RECON,ioos:station:SCCF:51:1,2010-04-05T15:00:00Z,26.5545,-82.1715,1.892,7.19,1111122 
SCCF RECON,ioos:station:SCCF:51:1,2010-04-05T16:00:00Z,26.5545,-82.1715,1.91,7.43,1111122 
SCCF RECON,ioos:station:SCCF:51:1,2010-04-05T17:00:00Z,26.5545,-82.1715,1.934,7.52,1111122 
SCCF RECON,ioos:station:SCCF:51:1,2010-04-05T18:00:00Z,26.5545,-82.1715,1.962,7.64,1111122 
SCCF RECON,ioos:station:SCCF:51:1,2010-04-05T19:00:00Z,26.5545,-82.1715,1.973,7.95,1111122 
SCCF RECON,ioos:station:SCCF:51:1,2010-04-05T20:00:00Z,26.5545,-82.1715,2.01,8.0,1111122 
SCCF RECON,ioos:station:SCCF:51:1,2010-04-05T21:00:00Z,26.5545,-82.1715,2.048,8.32,1111122 
SCCF RECON,ioos:station:SCCF:51:1,2010-04-05T22:00:00Z,26.5545,-82.1715,2.059,8.02,1111122 
SCCF RECON,ioos:station:SCCF:51:1,2010-04-05T23:00:00Z,26.5545,-82.1715,2.012,7.84,1111122 
SCCF RECON,ioos:station:SCCF:51:1,2010-04-06T00:00:00Z,26.5545,-82.1715,1.938,7.79,1111122 
SCCF RECON,ioos:station:SCCF:51:1,2010-04-06T01:00:00Z,26.5545,-82.1715,1.87,7.76,1111122 
SCCF RECON,ioos:station:SCCF:51:1,2010-04-06T02:00:00Z,26.5545,-82.1715,1.797,7.72,1111122 
SCCF RECON,ioos:station:SCCF:51:1,2010-04-06T03:00:00Z,26.5545,-82.1715,1.711,7.66,1111122 
SCCF RECON,ioos:station:SCCF:51:1,2010-04-06T04:00:00Z,26.5545,-82.1715,1.615,7.56,1111122 
SCCF RECON,ioos:station:SCCF:51:1,2010-04-06T05:00:00Z,26.5545,-82.1715,1.531,7.42,1111122 
SCCF RECON,ioos:station:SCCF:51:1,2010-04-06T06:00:00Z,26.5545,-82.1715,1.46,7.26,1111122 
SCCF RECON,ioos:station:SCCF:51:1,2010-04-06T07:00:00Z,26.5545,-82.1715,1.447,7.06,1111122 
SCCF RECON,ioos:station:SCCF:51:1,2010-04-06T08:00:00Z,26.5545,-82.1715,1.49,7.12,1111122 
SCCF RECON,ioos:station:SCCF:51:1,2010-04-06T09:00:00Z,26.5545,-82.1715,1.561,7.04,1111122 
SCCF RECON,ioos:station:SCCF:51:1,2010-04-06T10:00:00Z,26.5545,-82.1715,1.643,7.03,1111122 
SCCF RECON,ioos:station:SCCF:51:1,2010-04-06T11:00:00Z,26.5545,-82.1715,1.716,6.97,1111122 
SCCF RECON,ioos:station:SCCF:51:1,2010-04-06T12:00:00Z,26.5545,-82.1715,1.774,6.8,1111122 
SCCF RECON,ioos:station:SCCF:51:1,2010-04-06T13:00:00Z,26.5545,-82.1715,1.828,6.86,1111122 
SCCF RECON,ioos:station:SCCF:51:1,2010-04-06T14:00:00Z,26.5545,-82.1715,1.876,7.08,1111122 
SCCF RECON,ioos:station:SCCF:51:1,2010-04-06T15:00:00Z,26.5545,-82.1715,1.903,7.14,1111122 
SCCF RECON,ioos:station:SCCF:51:1,2010-04-06T16:00:00Z,26.5545,-82.1715,1.902,7.15,1111122 
SCCF RECON,ioos:station:SCCF:51:1,2010-04-06T17:00:00Z,26.5545,-82.1715,1.869,7.42,1111122 
SCCF RECON,ioos:station:SCCF:51:1,2010-04-06T18:00:00Z,26.5545,-82.1715,1.867,7.65,1111122 
SCCF RECON,ioos:station:SCCF:51:1,2010-04-06T19:00:00Z,26.5545,-82.1715,1.893,7.68,1111122 
SCCF RECON,ioos:station:SCCF:51:1,2010-04-06T20:00:00Z,26.5545,-82.1715,1.935,7.74,1111122 
SCCF RECON,ioos:station:SCCF:51:1,2010-04-06T21:00:00Z,26.5545,-82.1715,1.964,7.79,1111122 
SCCF RECON,ioos:station:SCCF:51:1,2010-04-06T22:00:00Z,26.5545,-82.1715,1.981,8.08,1111122 
SCCF RECON,ioos:station:SCCF:51:1,2010-04-06T23:00:00Z,26.5545,-82.1715,1.99,8.21,1111122 
SCCF RECON,ioos:station:SCCF:51:1,2010-04-07T00:00:00Z,26.5545,-82.1715,1.961,8.04,1111122 
SCCF RECON,ioos:station:SCCF:51:1,2010-04-07T01:00:00Z,26.5545,-82.1715,1.92,8.04,1111122 
SCCF RECON,ioos:station:SCCF:51:1,2010-04-07T02:00:00Z,26.5545,-82.1715,1.861,7.72,1111122 
SCCF RECON,ioos:station:SCCF:51:1,2010-04-07T03:00:00Z,26.5545,-82.1715,1.791,7.52,1111122 
SCCF RECON,ioos:station:SCCF:51:1,2010-04-07T04:00:00Z,26.5545,-82.1715,1.725,7.3,1111122 
SCCF RECON,ioos:station:SCCF:51:1,2010-04-07T05:00:00Z,26.5545,-82.1715,1.649,7.69,1111122 
SCCF RECON,ioos:station:SCCF:51:1,2010-04-07T06:00:00Z,26.5545,-82.1715,1.588,7.58,1111122 
SCCF RECON,ioos:station:SCCF:51:1,2010-04-07T07:00:00Z,26.5545,-82.1715,1.511,7.48,1111122 
SCCF RECON,ioos:station:SCCF:51:1,2010-04-07T08:00:00Z,26.5545,-82.1715,1.488,7.49,1111122 
SCCF RECON,ioos:station:SCCF:51:1,2010-04-07T09:00:00Z,26.5545,-82.1715,1.528,7.53,1111122 
SCCF RECON,ioos:station:SCCF:51:1,2010-04-07T10:00:00Z,26.5545,-82.1715,1.598,7.33,1111122 
SCCF RECON,ioos:station:SCCF:51:1,2010-04-07T11:00:00Z,26.5545,-82.1715,1.689,7.07,1111122 
SCCF RECON,ioos:station:SCCF:51:1,2010-04-07T12:00:00Z,26.5545,-82.1715,1.786,6.98,1111122 
SCCF RECON,ioos:station:SCCF:51:1,2010-04-07T13:00:00Z,26.5545,-82.1715,1.864,6.96,1111122 
SCCF RECON,ioos:station:SCCF:51:1,2010-04-07T14:00:00Z,26.5545,-82.1715,1.917,6.94,1111122 
SCCF RECON,ioos:station:SCCF:51:1,2010-04-07T15:00:00Z,26.5545,-82.1715,1.966,7.28,1111122 
SCCF RECON,ioos:station:SCCF:51:1,2010-04-07T16:00:00Z,26.5545,-82.1715,1.966,7.41,1111122 
SCCF RECON,ioos:station:SCCF:51:1,2010-04-07T17:00:00Z,26.5545,-82.1715,1.927,7.46,1111122 
SCCF RECON,ioos:station:SCCF:51:1,2010-04-07T18:00:00Z,26.5545,-82.1715,1.887,7.54,1111122 
SCCF RECON,ioos:station:SCCF:51:1,2010-04-07T19:00:00Z,26.5545,-82.1715,1.871,7.59,1111122 
SCCF RECON,ioos:station:SCCF:51:1,2010-04-07T20:00:00Z,26.5545,-82.1715,1.885,7.71,1111122 
SCCF RECON,ioos:station:SCCF:51:1,2010-04-07T21:00:00Z,26.5545,-82.1715,1.908,7.71,1111122 
SCCF RECON,ioos:station:SCCF:51:1,2010-04-07T22:00:00Z,26.5545,-82.1715,1.939,7.77,1111122 
SCCF RECON,ioos:station:SCCF:51:1,2010-04-07T23:00:00Z,26.5545,-82.1715,1.973,7.77,1111122 
SCCF RECON,ioos:station:SCCF:51:1,2010-04-08T00:00:00Z,26.5545,-82.1715,1.983,7.71,1111122 
SCCF RECON,ioos:station:SCCF:51:1,2010-04-08T01:00:00Z,26.5545,-82.1715,1.97,8.12,1111122 
SCCF RECON,ioos:station:SCCF:51:1,2010-04-08T02:00:00Z,26.5545,-82.1715,1.922,7.45,1111122 
SCCF RECON,ioos:station:SCCF:51:1,2010-04-08T03:00:00Z,26.5545,-82.1715,1.88,7.27,1111122 
SCCF RECON,ioos:station:SCCF:51:1,2010-04-08T04:00:00Z,26.5545,-82.1715,1.83,7.27,1111122 
SCCF RECON,ioos:station:SCCF:51:1,2010-04-08T05:00:00Z,26.5545,-82.1715,1.765,7.39,1111122 
SCCF RECON,ioos:station:SCCF:51:1,2010-04-08T06:00:00Z,26.5545,-82.1715,1.686,7.48,1111122 
SCCF RECON,ioos:station:SCCF:51:1,2010-04-08T07:00:00Z,26.5545,-82.1715,1.609,7.45,1111122 
SCCF RECON,ioos:station:SCCF:51:1,2010-04-08T08:00:00Z,26.5545,-82.1715,1.54,7.32,1111122 
SCCF RECON,ioos:station:SCCF:51:1,2010-04-08T09:00:00Z,26.5545,-82.1715,1.499,7.23,1111122 
SCCF RECON,ioos:station:SCCF:51:1,2010-04-08T10:00:00Z,26.5545,-82.1715,1.531,7.18,1111122 
SCCF RECON,ioos:station:SCCF:51:1,2010-04-08T11:00:00Z,26.5545,-82.1715,1.625,7.17,1111122 
SCCF RECON,ioos:station:SCCF:51:1,2010-04-08T12:00:00Z,26.5545,-82.1715,1.732,6.83,1111122 
SCCF RECON,ioos:station:SCCF:51:1,2010-04-08T13:00:00Z,26.5545,-82.1715,1.826,6.75,1111122 
SCCF RECON,ioos:station:SCCF:51:1,2010-04-08T14:00:00Z,26.5545,-82.1715,1.9,7.04,1111122 
SCCF RECON,ioos:station:SCCF:51:1,2010-04-08T15:00:00Z,26.5545,-82.1715,1.954,7.22,1111122 
SCCF RECON,ioos:station:SCCF:51:1,2010-04-08T16:00:00Z,26.5545,-82.1715,1.953,7.32,1111122 
SCCF RECON,ioos:station:SCCF:51:1,2010-04-08T17:00:00Z,26.5545,-82.1715,1.922,7.35,1111122 
SCCF RECON,ioos:station:SCCF:51:1,2010-04-08T18:00:00Z,26.5545,-82.1715,1.874,7.32,1111122 
SCCF RECON,ioos:station:SCCF:51:1,2010-04-08T19:00:00Z,26.5545,-82.1715,1.841,7.33,1111122 
SCCF RECON,ioos:station:SCCF:51:1,2010-04-08T20:00:00Z,26.5545,-82.1715,1.823,7.45,1111122 
SCCF RECON,ioos:station:SCCF:51:1,2010-04-08T21:00:00Z,26.5545,-82.1715,1.825,7.46,1111122 
SCCF RECON,ioos:station:SCCF:51:1,2010-04-08T22:00:00Z,26.5545,-82.1715,1.858,7.51,1111122 
SCCF RECON,ioos:station:SCCF:51:1,2010-04-08T23:00:00Z,26.5545,-82.1715,1.902,7.59,1111122 
SCCF RECON,ioos:station:SCCF:51:1,2010-04-09T00:00:00Z,26.5545,-82.1715,1.952,7.63,1111122 
SCCF RECON,ioos:station:SCCF:51:1,2010-04-09T01:00:00Z,26.5545,-82.1715,2.009,7.48,1111122 
SCCF RECON,ioos:station:SCCF:51:1,2010-04-09T02:00:00Z,26.5545,-82.1715,2.021,7.48,1111122 
SCCF RECON,ioos:station:SCCF:51:1,2010-04-09T03:00:00Z,26.5545,-82.1715,1.983,7.33,1111122 
SCCF RECON,ioos:station:SCCF:51:1,2010-04-09T04:00:00Z,26.5545,-82.1715,1.946,7.27,1111122 
SCCF RECON,ioos:station:SCCF:51:1,2010-04-09T05:00:00Z,26.5545,-82.1715,1.887,7.25,1111122 
SCCF RECON,ioos:station:SCCF:51:1,2010-04-09T06:00:00Z,26.5545,-82.1715,1.807,6.98,1111122 
SCCF RECON,ioos:station:SCCF:51:1,2010-04-09T07:00:00Z,26.5545,-82.1715,1.734,6.68,1111122 
SCCF RECON,ioos:station:SCCF:51:1,2010-04-09T08:00:00Z,26.5545,-82.1715,1.663,6.54,1111122 
SCCF RECON,ioos:station:SCCF:51:1,2010-04-09T09:00:00Z,26.5545,-82.1715,1.601,6.54,1111122 
SCCF RECON,ioos:station:SCCF:51:1,2010-04-09T10:00:00Z,26.5545,-82.1715,1.618,6.36,1111122 
SCCF RECON,ioos:station:SCCF:51:1,2010-04-09T11:00:00Z,26.5545,-82.1715,1.641,6.46,1111122 
SCCF RECON,ioos:station:SCCF:51:1,2010-04-09T12:00:00Z,26.5545,-82.1715,1.711,6.51,1111122 
SCCF RECON,ioos:station:SCCF:51:1,2010-04-09T13:00:00Z,26.5545,-82.1715,1.829,6.44,1111122 
SCCF RECON,ioos:station:SCCF:51:1,2010-04-09T14:00:00Z,26.5545,-82.1715,1.915,6.84,1111122 
SCCF RECON,ioos:station:SCCF:51:1,2010-04-09T15:00:00Z,26.5545,-82.1715,1.985,6.99,1111122 
SCCF RECON,ioos:station:SCCF:51:1,2010-04-09T16:00:00Z,26.5545,-82.1715,2.01,6.83,1111122 
SCCF RECON,ioos:station:SCCF:51:1,2010-04-09T17:00:00Z,26.5545,-82.1715,1.957,7.0,1111122 
SCCF RECON,ioos:station:SCCF:51:1,2010-04-09T18:00:00Z,26.5545,-82.1715,1.872,6.97,1111122 
SCCF RECON,ioos:station:SCCF:51:1,2010-04-09T19:00:00Z,26.5545,-82.1715,1.8,6.97,1111122 
SCCF RECON,ioos:station:SCCF:51:1,2010-04-09T20:00:00Z,26.5545,-82.1715,1.751,7.26,1111122 
SCCF RECON,ioos:station:SCCF:51:1,2010-04-09T21:00:00Z,26.5545,-82.1715,1.724,7.36,1111122 
SCCF RECON,ioos:station:SCCF:51:1,2010-04-09T22:00:00Z,26.5545,-82.1715,1.745,7.41,1111122 
SCCF RECON,ioos:station:SCCF:51:1,2010-04-09T23:00:00Z,26.5545,-82.1715,1.772,7.37,1111122 
SCCF RECON,ioos:station:SCCF:51:1,2010-04-10T00:00:00Z,26.5545,-82.1715,1.819,7.37,1111122 
SCCF RECON,ioos:station:SCCF:51:1,2010-04-10T01:00:00Z,26.5545,-82.1715,1.873,7.34,1111122 
SCCF RECON,ioos:station:SCCF:51:1,2010-04-10T02:00:00Z,26.5545,-82.1715,1.909,7.29,1111122 
SCCF RECON,ioos:station:SCCF:51:1,2010-04-10T03:00:00Z,26.5545,-82.1715,1.923,7.16,1111122 
SCCF RECON,ioos:station:SCCF:51:1,2010-04-10T04:00:00Z,26.5545,-82.1715,1.915,7.11,1111122 
SCCF RECON,ioos:station:SCCF:51:1,2010-04-10T05:00:00Z,26.5545,-82.1715,1.869,7.11,1111122 
SCCF RECON,ioos:station:SCCF:51:1,2010-04-10T06:00:00Z,26.5545,-82.1715,1.797,7.0,1111122 
SCCF RECON,ioos:station:SCCF:51:1,2010-04-10T07:00:00Z,26.5545,-82.1715,1.703,7.08,1111122 
SCCF RECON,ioos:station:SCCF:51:1,2010-04-10T08:00:00Z,26.5545,-82.1715,1.611,7.06,1111122 
SCCF RECON,ioos:station:SCCF:51:1,2010-04-10T09:00:00Z,26.5545,-82.1715,1.538,6.98,1111122 
SCCF RECON,ioos:station:SCCF:51:1,2010-04-10T10:00:00Z,26.5545,-82.1715,1.5,6.87,1111122 
SCCF RECON,ioos:station:SCCF:51:1,2010-04-10T11:00:00Z,26.5545,-82.1715,1.516,6.85,1111122 
SCCF RECON,ioos:station:SCCF:51:1,2010-04-10T12:00:00Z,26.5545,-82.1715,1.593,6.8,1111122 
SCCF RECON,ioos:station:SCCF:51:1,2010-04-10T13:00:00Z,26.5545,-82.1715,1.691,6.81,1111122 
SCCF RECON,ioos:station:SCCF:51:1,2010-04-10T14:00:00Z,26.5545,-82.1715,1.798,6.61,1111122 
SCCF RECON,ioos:station:SCCF:51:1,2010-04-10T15:00:00Z,26.5545,-82.1715,1.866,6.83,1111122 
SCCF RECON,ioos:station:SCCF:51:1,2010-04-10T16:00:00Z,26.5545,-82.1715,1.905,6.98,1111122 
SCCF RECON,ioos:station:SCCF:51:1,2010-04-10T17:00:00Z,26.5545,-82.1715,1.885,7.0,1111122 
SCCF RECON,ioos:station:SCCF:51:1,2010-04-10T18:00:00Z,26.5545,-82.1715,1.847,7.23,1111122 
SCCF RECON,ioos:station:SCCF:51:1,2010-04-10T19:00:00Z,26.5545,-82.1715,1.785,7.46,1111122 
SCCF RECON,ioos:station:SCCF:51:1,2010-04-10T20:00:00Z,26.5545,-82.1715,1.723,7.5,1111122 
SCCF RECON,ioos:station:SCCF:51:1,2010-04-10T21:00:00Z,26.5545,-82.1715,1.672,7.48,1111122 
SCCF RECON,ioos:station:SCCF:51:1,2010-04-10T22:00:00Z,26.5545,-82.1715,1.649,7.64,1111122 
SCCF RECON,ioos:station:SCCF:51:1,2010-04-10T23:00:00Z,26.5545,-82.1715,1.681,8.15,1111122 
SCCF RECON,ioos:station:SCCF:51:1,2010-04-11T00:00:00Z,26.5545,-82.1715,1.748,8.06,1111122 
SCCF RECON,ioos:station:SCCF:51:1,2010-04-11T01:00:00Z,26.5545,-82.1715,1.831,7.4,1111122 
SCCF RECON,ioos:station:SCCF:51:1,2010-04-11T02:00:00Z,26.5545,-82.1715,1.898,7.09,1111122 
SCCF RECON,ioos:station:SCCF:51:1,2010-04-11T03:00:00Z,26.5545,-82.1715,1.927,7.13,1111122 
SCCF RECON,ioos:station:SCCF:51:1,2010-04-11T04:00:00Z,26.5545,-82.1715,1.925,7.12,1111122 
SCCF RECON,ioos:station:SCCF:51:1,2010-04-11T05:00:00Z,26.5545,-82.1715,1.894,7.11,1111122 
SCCF RECON,ioos:station:SCCF:51:1,2010-04-11T06:00:00Z,26.5545,-82.1715,1.829,7.43,1111122 
SCCF RECON,ioos:station:SCCF:51:1,2010-04-11T07:00:00Z,26.5545,-82.1715,1.755,7.26,1111122 
SCCF RECON,ioos:station:SCCF:51:1,2010-04-11T08:00:00Z,26.5545,-82.1715,1.675,7.1,1111122 
SCCF RECON,ioos:station:SCCF:51:1,2010-04-11T09:00:00Z,26.5545,-82.1715,1.597,6.94,1111122 
SCCF RECON,ioos:station:SCCF:51:1,2010-04-11T10:00:00Z,26.5545,-82.1715,1.529,6.84,1111122 
SCCF RECON,ioos:station:SCCF:51:1,2010-04-11T11:00:00Z,26.5545,-82.1715,1.571,6.86,1111122 
SCCF RECON,ioos:station:SCCF:51:1,2010-04-11T12:00:00Z,26.5545,-82.1715,1.626,6.72,1111122 
SCCF RECON,ioos:station:SCCF:51:1,2010-04-11T13:00:00Z,26.5545,-82.1715,1.718,6.93,1111122 
SCCF RECON,ioos:station:SCCF:51:1,2010-04-11T14:00:00Z,26.5545,-82.1715,1.844,6.66,1111122 
SCCF RECON,ioos:station:SCCF:51:1,2010-04-11T15:00:00Z,26.5545,-82.1715,2.054,6.92,1111122 
SCCF RECON,ioos:station:SCCF:51:1,2010-04-11T16:00:00Z,26.5545,-82.1715,1.962,6.84,1111122 
SCCF RECON,ioos:station:SCCF:51:1,2010-04-11T17:00:00Z,26.5545,-82.1715,1.91,6.74,1111122 
SCCF RECON,ioos:station:SCCF:51:1,2010-04-11T18:00:00Z,26.5545,-82.1715,1.79,6.66,1111122 
SCCF RECON,ioos:station:SCCF:51:1,2010-04-11T19:00:00Z,26.5545,-82.1715,1.691,6.72,1111122 